TANTRUM (TYVAK-1015) (58616 NORAD) Tracking and Keplerian Element Data

This shows tracking and keplerian element data for the satellite.

Feedback or suggestion? Click here.




ElementValue
Catalog58616
NameTANTRUM (TYVAK-1015)
Epoch Orbit338
Epoch Day13.2306668
Epoch Year2024
RAAN135.6063
Inclination140.017
Eccentricity0.0182665
Argument of Perigee323.1478
Mean Anonmoly35.6928
Mean Motion15.80242699
Decay Rate0.00410731
L11 58616U 23202A 24013.23066680 .00410731 -94849-5 57649-3 0 9996
L22 58616 140.0170 135.6063 0182665 323.1478 35.6928 15.80242699 3384



Live tracking and technical data element details for TANTRUM (TYVAK-1015) (NORAD 58616). TANTRUM (TYVAK-1015) can be tracked NOW for your location showing map with azimuth and elevation plus other details from your city location.







IsCatalogInMostPopularTable: catalog: 58616, numindb: 25
Update: records affected: 1



GetName: 58616 TANTRUM (TYVAK-1015)

Hit Count: updated at: Wed, 17 Apr 2024 02:03:46 GMT